KI5IZM-13 Weather Reports


Display with metric or nautical units.
time (UTC)temp
F
wind
direction
speed
MPH
gust
MPH
rain 1hr
in
rain 24hr
in
rain mn
in
humidity
%
barometer
mb
20260905193028 92 264 0.0 4.0 0.00 0.00 0.00 62 1013.3
20260905191509 93 225 0.0 7.0 0.00 0.00 0.00 59 1013.3
20260905190010 92 251 1.0 6.0 0.00 0.00 0.00 62 1013.4
20260905184518 92 96 0.0 3.0 0.00 0.00 0.00 60 1013.7
20260905183023 93 224 0.0 5.0 0.00 0.00 0.00 60 1013.8
20260905181527 92 225 0.0 8.0 0.00 0.00 0.00 62 1014.2
20260905180035 91 271 1.0 4.0 0.00 0.00 0.00 63 1014.4
20260905174515 91 292 0.0 2.0 0.00 0.00 0.00 63 1014.9
20260905173018 91 250 2.0 5.0 0.00 0.00 0.00 63 1015.1
20260905171539 90 340 2.0 8.0 0.00 0.00 0.00 65 1015.3
20260905170034 90 139 0.0 5.0 0.00 0.00 0.00 66 1015.4
20260905164533 90 288 1.0 7.0 0.00 0.00 0.00 68 1015.6
20260905163019 89 316 0.0 2.0 0.00 0.00 0.00 70 1015.7
20260905161534 88 263 0.0 3.0 0.00 0.00 0.00 71 1015.7
20260905160037 87 215 2.0 4.0 0.00 0.00 0.00 72 1015.7
20260905154546 87 112 1.0 7.0 0.00 0.00 0.00 74 1015.8
20260905153030 86 273 0.0 4.0 0.00 0.00 0.00 77 1015.7
20260905151519 85 285 2.0 7.0 0.00 0.00 0.00 79 1015.7
20260905150026 84 253 2.0 7.0 0.00 0.00 0.00 80 1015.6
20260905144538 83 322 0.0 3.0 0.00 0.00 0.00 84 1015.8
20260905143009 82 307 0.0 2.0 0.00 0.00 0.00 86 1015.6
20260905141515 81 227 0.0 2.0 0.00 0.00 0.00 86 1015.6
20260905140030 80 286 0.0 1.0 0.00 0.00 0.00 87 1015.5
20260905134508 79 242 0.0 4.0 0.00 0.00 0.00 89 1015.5
20260905133009 78 252 0.0 0.0 0.00 0.00 0.00 92 1015.5
20260905131511 76 252 0.0 0.0 0.00 0.00 0.00 95 1015.5
20260905130021 75 252 0.0 0.0 0.00 0.00 0.00 95 1015.5
20260905124534 74 252 0.0 0.0 0.00 0.00 0.00 95 1015.3
20260905123031 74 252 0.0 0.0 0.00 0.00 0.00 94 1015.3
20260905121510 74 248 0.0 0.0 0.00 0.00 0.00 94 1015.2
20260905120015 74 342 0.0 0.0 0.00 0.00 0.00 94 1015.1
20260905114525 74 284 0.0 0.0 0.00 0.00 0.00 94 1014.9
20260905113027 74 284 0.0 0.0 0.00 0.00 0.00 94 1014.7
20260905111530 74 284 0.0 0.0 0.00 0.00 0.00 94 1014.7
20260905110014 74 284 0.0 0.0 0.00 0.00 0.00 94 1014.6
20260905104525 74 284 0.0 0.0 0.00 0.00 0.00 94 1014.7
20260905103027 74 284 0.0 0.0 0.00 0.00 0.00 93 1014.7
20260905101530 74 284 0.0 0.0 0.00 0.00 0.00 93 1014.5
20260905100032 74 284 0.0 0.0 0.00 0.00 0.00 93 1014.6
20260905094516 75 284 0.0 0.0 0.00 0.00 0.00 93 1014.5
20260905093018 75 284 0.0 0.0 0.00 0.00 0.00 93 1014.3
20260905091527 75 284 0.0 0.0 0.00 0.00 0.00 92 1014.2
20260905090030 75 284 0.0 0.0 0.00 0.00 0.00 92 1014.2
20260905084540 75 284 0.0 0.0 0.00 0.00 0.00 92 1014.0
20260905083018 75 284 0.0 0.0 0.00 0.00 0.00 92 1014.0
20260905081526 76 284 0.0 0.0 0.00 0.00 0.00 91 1014.1
20260905080045 76 284 0.0 0.0 0.00 0.00 0.00 91 1014.1
20260905074507 76 284 0.0 0.0 0.00 0.00 0.00 90 1014.2
20260905073024 76 284 0.0 0.0 0.00 0.00 0.00 90 1014.4
20260905071511 77 284 0.0 0.0 0.00 0.00 0.00 90 1014.5
20260905070011 77 284 0.0 0.0 0.00 0.00 0.00 89 1014.7
20260905064510 77 284 0.0 0.0 0.00 0.00 0.00 89 1014.9
20260905063013 77 284 0.0 0.0 0.00 0.00 0.00 88 1014.7
20260905061511 78 284 0.0 0.0 0.00 0.00 0.00 87 1014.4
20260905060014 78 284 0.0 0.0 0.00 0.00 0.00 87 1014.5
20260905054516 78 284 0.0 0.0 0.00 0.00 0.00 86 1014.3
20260905053013 79 284 0.0 0.0 0.00 0.00 0.00 85 1014.2
20260905051515 79 284 0.0 0.0 0.00 0.00 0.00 84 1014.2
20260905050018 80 284 0.0 0.0 0.00 0.00 0.00 82 1014.0
20260905044523 81 284 0.0 0.0 0.00 0.00 0.00 81 1014.3
20260905043016 82 284 0.0 0.0 0.00 0.00 0.00 79 1014.3
20260905041512 83 149 0.0 0.0 0.00 0.00 0.00 79 1014.4
20260905040020 83 149 0.0 0.0 0.00 0.00 0.00 74 1014.3
20260905034526 83 150 0.0 2.0 0.00 0.00 0.00 74 1014.4
20260905033019 83 146 0.0 2.0 0.00 0.00 0.00 75 1014.5
20260905031520 82 163 0.0 2.0 0.00 0.00 0.00 77 1014.4
20260905030013 81 175 0.0 3.0 0.00 0.00 0.00 79 1014.4
20260905024518 82 83 0.0 0.0 0.00 0.00 0.00 82 1014.2
20260905023023 82 83 0.0 0.0 0.00 0.00 0.00 80 1014.1
20260905021523 83 83 0.0 0.0 0.00 0.00 0.00 79 1013.9
20260905020024 84 83 0.0 0.0 0.00 0.00 0.00 77 1013.6
20260905014520 84 83 0.0 0.0 0.00 0.00 0.00 75 1013.4
20260905013026 85 83 0.0 0.0 0.00 0.00 0.00 72 1013.2
20260905011526 86 83 0.0 0.0 0.00 0.00 0.00 71 1013.0
20260905010027 88 83 0.0 0.0 0.00 0.00 0.00 69 1013.0
20260905004530 89 83 0.0 0.0 0.00 0.00 0.00 66 1012.9
20260905003027 90 83 0.0 0.0 0.00 0.00 0.00 63 1013.0
20260905001529 92 83 0.0 0.0 0.00 0.00 0.00 59 1012.9
20260905000034 93 187 0.0 1.0 0.00 0.00 0.00 56 1012.8
20260904234539 94 123 1.0 5.0 0.00 0.00 0.00 53 1012.8
20260904233030 94 137 1.0 5.0 0.00 0.00 0.00 53 1012.7
20260904231531 95 88 0.0 5.0 0.00 0.00 0.00 52 1012.8
20260904230029 95 205 1.0 5.0 0.00 0.00 0.00 51 1012.9
20260904224539 95 163 1.0 5.0 0.00 0.00 0.00 50 1012.9
20260904223029 95 78 0.0 5.0 0.00 0.00 0.00 50 1012.8
20260904221521 95 86 0.0 2.0 0.00 0.00 0.00 52 1012.8
20260904220008 95 139 2.0 5.0 0.00 0.00 0.00 51 1012.9
20260904214513 95 191 0.0 3.0 0.00 0.00 0.00 52 1013.0
20260904213007 95 315 0.0 8.0 0.00 0.00 0.00 52 1013.1
20260904211514 95 211 0.0 9.0 0.00 0.00 0.00 52 1013.5
20260904210019 95 200 0.0 9.0 0.00 0.00 0.00 51 1013.6
20260904204504 95 136 3.0 9.0 0.00 0.00 0.00 52 1013.6
20260904203004 95 131 2.0 5.0 0.00 0.00 0.00 53 1013.7
20260904201510 94 285 1.0 7.0 0.00 0.00 0.00 54 1014.1
20260904200017 94 119 2.0 7.0 0.00 0.00 0.00 54 1014.4
20260904194524 94 200 1.0 9.0 0.00 0.00 0.00 54 1014.7